Simultaneous Nadir Overpasses (SNOs) Predictions

Prediction of SNOs between METOP-B and TERRA Satellite Orbit:

Table of predicted SNOs for the next 14.0 days since TLE Epoch: 9/2/2023
Index Date (METOP-B) Time (METOP-B) Lat,Lon (METOP-B) SZA (METOP-B ) Date (TERRA) Time (TERRA) Lat,Lon (TERRA) SZA (TERRA ) Distance(km) Time Diff (sec)
1 09/03/2023 02:14:02 80.69, 176.35 74.24 09/03/2023 02:14:57 80.69, 176.40 74.26 0.97 55
2 09/03/2023 03:04:39 -80.77, -14.97 105.57 09/03/2023 03:04:16 -80.77, -15.03 105.58 1.06 23
3 09/05/2023 18:25:35 80.74, -65.68 75.36 09/05/2023 18:25:38 80.74, -65.81 75.34 2.26 3
4 09/05/2023 19:15:06 -81.34, 128.28 101.32 09/05/2023 19:13:53 -81.93, 127.92 101.08 66.04 73
5 09/08/2023 09:46:33 -80.70,-116.64 103.75 09/08/2023 09:47:00 -80.70,-116.59 103.73 0.98 27
6 09/08/2023 10:37:10 80.77, 51.88 76.44 09/08/2023 10:36:20 80.77, 51.82 76.41 1.25 50
7 09/11/2023 01:07:29 80.68,-167.17 77.23 09/11/2023 01:08:21 80.68,-167.10 77.26 1.49 52
8 09/11/2023 01:58:07 -80.75, 1.23 102.61 09/11/2023 01:57:41 -80.75, 1.23 102.62 0.01 26



Historial Predications of SNOs between METOP-B and TERRA
